Hourly Data Report for May 05, 2020

All times are specified in Local Standard Time (LST). Add 1 hour to adjust for Daylight Saving Time where and when it is observed.

OTTAWA INTL A
ONTARIO
Current Station Operator: NAVCAN

45°19'00.000" N
75°40'00.000" W
114.90 m
6106001
71628
YOW

Download Data

Hourly Data (May 2020)
Hourly Data Report for May 5, 2020
TIME Temp Definition
°C
Dew Point Definition
°C
Rel Hum Definition
%
Wind Dir Definition
10's deg

Wind Spd Definition
km/h
Visibility Definition
km
Stn Press Definition
kPa
Hmdx Definition


Wind Chill Definition


Weather Definition


00:00 0.8 -6.5 58 31 19 24.1 100.16     LegendNANA
01:00 0.3 -6.7 59 31 22 24.1 100.13     Clear
02:00 -0.4 -6.9 62 31 18 24.1 100.11   -5 LegendNANA
03:00 -0.7 -7.5 60 31 17 24.1 100.13   -6 LegendNANA
04:00 -0.9 -7.6 61 30 23 24.1 100.17   -7 Clear
05:00 -1.6 -7.5 64 30 17 24.1 100.21   -7 LegendNANA
06:00 -0.3 -7.4 59 32 24 24.1 100.23   -6 LegendNANA
07:00 0.4 -7.9 54 33 32 24.1 100.22     Clear
08:00 1.7 -6.7 54 35 22 24.1 100.22     LegendNANA
09:00 2.7 -6.3 52 31 20 24.1 100.23     LegendNANA
10:00 4.5 -5.2 49 31 23 24.1 100.21     Clear
11:00 6.1 -4.3 47 33 17 24.1 100.20     LegendNANA
12:00 7.2 -3.7 46 30 13 24.1 100.14     LegendNANA
13:00 9.1 -3.9 40 30 18 24.1 100.09     Mainly Clear
14:00 9.9 -3.3 39 27 10 24.1 100.06     LegendNANA
15:00 10.5 -4.4 35 30 20 24.1 100.04     LegendNANA
16:00 11.0 -3.7 35 29 16 24.1 100.02     Mainly Clear
17:00 10.3 -5.7 32 30 9 24.1 100.03     LegendNANA
18:00 10.0 -5.3 34 30 8 24.1 100.02     LegendNANA
19:00 8.6 -4.4 40 30 12 24.1 100.06     Mainly Clear
20:00 6.3 -3.7 49 29 11 24.1 100.14     LegendNANA
21:00 6.5 -5.1 43 29 7 24.1 100.14     LegendNANA
22:00 5.6 -4.8 47 31 8 24.1 100.09     Clear
23:00 5.9 -5.1 45 36 8 24.1 100.08     LegendNANA

Notes on Data Quality.

Legend

  • E = Estimated
  • M = Missing
  • NA = Not Available*
  • [empty] = Indicates an unobserved value
Date modified: